Regional Weather Roundup
Issued by NWS

Home | Current Version | Previous Version | Text Only | Print | Product List | Glossary Off
Versions: 1 2 3 4 5 6 7 8 9 10 11 12 13 14 15 16 17 18 19 20 21 22 23 24 25 26 27

000
ASUS45 KTFX 241710
RWRMT
MONTANA REGIONAL WEATHER ROUNDUP
NATIONAL WEATHER SERVICE GREAT FALLS MT
1100 AM MDT WED AUG 24 2016

NOTE: "FAIR" INDICATES FEW OR NO CLOUDS BELOW 12000 FEET WITH NO
SIGNIFICANT WEATHER AND/OR OBSTRUCTIONS TO VISIBILITY.

MTZ001>007-043-241800-
WEST OF THE DIVIDE

CITY           SKY/WX    TMP DP  RH WIND       PRES   REMARKS
KALISPELL      PTSUNNY   69  39  33 NE15G24   30.30S
MISSOULA       PTSUNNY   67  43  41 SE14      30.31S
BUTTE          PTSUNNY   53  37  54 CALM      30.37R
MULLAN PASS    PTSUNNY   56  40  55 CALM      30.37R
DEER LODGE       N/A     57  39  51 N8        30.39R
EUREKA           N/A     64  43  45 W3        30.33S
HAMILTON         N/A     61  41  48 N5        30.30S
LIBBY            N/A     63  45  51 E3        30.33S
PLAINS           N/A     64  49  58 CALM      30.28S
THOMPSON FALLS   N/A     60  44  55 CALM      30.32S
$$

MTZ008-052>055-241800-
SOUTHWEST MONTANA

CITY           SKY/WX    TMP DP  RH WIND       PRES   REMARKS
BOZEMAN        PTSUNNY   61  39  44 CALM      30.34S
DILLON         MOSUNNY   61  38  42 NE16      30.32R
W YELLOWSTONE  SUNNY     57  32  38 NE10      30.31F
ENNIS          SUNNY     59  37  44 N23       30.36S
THREE FORKS      N/A     63  27  25 S6        30.29S
TWIN BRIDGES     N/A     61  37  40 NW16      30.26S
$$

MTZ009-010-012-014-046-048-049-054-241800-
EAST SLOPES AND CENTRAL MONTANA

CITY           SKY/WX    TMP DP  RH WIND       PRES   REMARKS
CUT BANK       MOSUNNY   58  41  53 N13G22    30.37S
GREAT FALLS    CLOUDY    57  42  57 N17       30.36R
MALMSTROM AFB  PTSUNNY   58  46  63 N8        30.35S
HELENA         CLOUDY    60  40  47 N9        30.37R
CHOTEAU          N/A     59  41  51 N13G21    30.39R
CONRAD           N/A     56  48  74 NW10      30.35S
$$

MTZ011-013-016-021-045-047-050-051-241800-
NORTH CENTRAL MONTANA

CITY           SKY/WX    TMP DP  RH WIND       PRES   REMARKS
HAVRE          CLOUDY    58  44  60 NW16      30.29R
LEWISTOWN      CLOUDY    49  45  86 NW8       30.33R
N BAR RANCH    CLOUDY    50  45  81 NW15G24   30.32R
CHINOOK          N/A     57  43  58 NW15G25   30.26R
$$

MTZ017>020-022>027-061-062-241800-
NORTHEAST MONTANA

CITY           SKY/WX    TMP DP  RH WIND       PRES   REMARKS
GLASGOW        CLOUDY    56  45  66 NW26G36   30.15R
JORDAN           N/A     60  43  53 NW20G30   30.19R
SIDNEY         PTSUNNY   63  46  54 W25G33    30.07R
WOLF POINT     CLOUDY    62  46  55 W25       30.11R
POPLAR           N/A     59  46  63 W21       30.09R
SCOBEY           N/A     56  47  71 W16       30.06R
$$

MTZ028>42-056>058-241800-
SOUTHCENTRAL AND SOUTHEAST MONTANA

CITY           SKY/WX    TMP DP  RH WIND       PRES   REMARKS
BAKER          PTSUNNY   64  43  46 NW26G38   30.15R
BILLINGS       PTSUNNY   65  41  41 NW13      30.26F
LIVINGSTON     CLOUDY    60  40  47 NW14      30.32R
MILES CITY     CLOUDY    65  46  50 NW20      30.18S
EKALAKA          N/A     62  45  53 W17       30.15R
FORSYTH          N/A     64  46  52 NW15      30.20S
LAUREL           N/A     65  41  41 W6        30.24R
$$

REGIONAL REPORTS...DAKOTAS

CITY           SKY/WX    TMP DP  RH WIND       PRES   REMARKS
WILLISTON      CLOUDY    62  46  55 W24G32    30.03R
MINOT          MOSUNNY   67  48  50 W18G35    29.92S
DICKINSON      PTSUNNY   65  44  46 W26G35    30.05R
CROSBY         CLOUDY    55  55 100 W14G25    29.99R FOG
BISMARCK       CLOUDY    68  50  52 W21G30    30.02S
GRAND FORKS    MOSUNNY   71  54  54 W18G28    29.86R
FARGO          SUNNY     73  53  49 W21G30    29.90F
BUFFALO SD       N/A     67  47  48 W21G29    30.11R
RAPID CITY     MOSUNNY   70  46  42 NW13      30.20S
$$

REGIONAL REPORTS...WYOMING/IDAHO/WASHINGTON

CITY           SKY/WX    TMP DP  RH WIND       PRES   REMARKS
GILLETTE       SUNNY     61  44  53 N7        30.26S
SHERIDAN       SUNNY     66  44  45 NW15G21   30.26S
BUFFALO WY     SUNNY     61  42  49 NW7       30.29S
CODY           SUNNY     57  43  58 NE12      30.30F
YELLOWSTONE LA   N/A     54  32  43 E5        30.35S
IDAHO FALLS    SUNNY     64  35  34 NE12      30.21S
SALMON         SUNNY     63  37  39 NW5       30.25F
BOISE          SUNNY     68  39  34 NW8       30.17S
SPOKANE        MOSUNNY   68  45  43 NE8       30.25S
$$

REGIONAL REPORTS...ALBERTA

CITY           SKY/WX    TMP DP  RH WIND       PRES   REMARKS
EDMONTON       MOSUNNY   64  54  68 W7        30.29R
CALGARY        MOSUNNY   61  46  59 NW12      30.36R
LETHBRIDGE     MOSUNNY   61  41  48 NW14G20   30.36R
MEDICINE HAT   CLOUDY    55  50  82 N5        30.29S
$$

REGIONAL REPORTS...SASKATCHEWAN

CITY           SKY/WX    TMP DP  RH WIND       PRES   REMARKS
SWIFT CURRENT  CLOUDY    50  48  93 NW18      30.15R
REGINA         LGT RAIN  54  54 100 NW16G24   29.97R FOG
SASKATOON      CLOUDY    57  54  88 N12       30.13R
$$




USA.gov is the U.S. government's official web portal to all federal, state and local government web resources and services.